一网星座-0047星 (ONEWEB-0047 )

导读 | 豆包AI

ONEWEB-0047是英国OneWeb“一网”低轨卫星星座的通信卫星,于2020年2月6日发射升空,归属英国企业。作为OneWeb一期组网卫星之一,它运行在约1200公里近地轨道,单颗重约147.5公斤,配备Ku波段天线,采用“弯管式”转发设计。该卫星旨在为全球偏远地区提供高速互联网接入,设计寿命约25年,寿命末期将按规范自动离轨,减少空间碎片影响。

基本信息
目录编号:
45152
目录名称:
ONEWEB-0047
国际标识:
2020-008X
轨道中心:
EARTH
卫星名称:
一网星座-0047星
卫星全名:
一网星座-0047星 (ONEWEB-0047 )
卫星状态:
在轨 (已飞行2228 天)
发射日期:
2020-02-06 UTC
国别 :
英国 (GB)
星等 :
--
轨道信息
数据来源 国际轨道数据 AOE轨道数据
星历时间 2026-03-13T17:31:26+0800
17小时前
查看轨道信息
2026-03-12T15:00:00+0800
1天前
查看轨道信息
半长轴 7599.852km 7599.878km
偏心率 0.0001996 0.0001865
轨道倾角 87.878° 87.876°
近地点辐角 89.149° 70.977°
升交点赤经 55.332° 55.554°
平近点角 270.987° 118.683°
近地点 1220.198km 1220.323km
远地点 1223.232km 1223.159km
周期 109.892分钟 109.893分钟
每日圈数 13.103735 13.103668
详细信息
平衡模式:
三轴稳定
覆盖范围:
全球
运营商:
一网卫星公司
运营商所在国:
英国
制造商(研发单位):
一网卫星公司
制造商所在国:
英国
使用方式:
暂无
卫星简介
OneWeb卫星网络由648颗重约125公斤的微型卫星组成,运行在1200公里的轨道上。 每颗卫星都能够提供至少每秒8千兆位的吞吐量,以使用其高吞吐量的Ku频段有效载荷为家庭和移动平台提供互联网接入。该卫星仍在工作。
2D轨道图
3D轨道图
轨道高度分析图
轨道倾角分析图
轨道综合分析图
查看轨道综合分析图